Regional Weather Roundup
Issued by NWS

Home | Current Version | Previous Version | Text Only | Print | Product List | Glossary On
Versions: 1 2 3 4 5 6 7 8 9 10 11 12 13 14 15 16 17 18 19 20 21 22 23 24 25 26 27
000
ASUS45 KREV 202110
RWRNV
NEVADA REGIONAL WEATHER ROUNDUP
NATIONAL WEATHER SERVICE RENO NV
200 PM PDT SUN APR 20 2014

NOTE: "FAIR" INDICATES FEW OR NO CLOUDS BELOW 12,000 FEET WITH NO
SIGNIFICANT WEATHER AND/OR OBSTRUCTIONS TO VISIBILITY.

NVZ001-003-004-202200-
WESTERN NEVADA

CITY           SKY/WX    TMP DP  RH WIND       PRES   REMARKS
RENO           PTSUNNY   69  16  13 NW3       30.20F
CARSON CITY    FAIR      66  14  13 NE7       30.20F
MINDEN         SUNNY     66  21  18 CALM      30.21F
SLIDE MTN        N/A     45  21  39 SE3         N/A
PYRAMID LAKE     N/A     59 N/A N/A N7          N/A
FALLON         PTSUNNY   70  22  16 VRB3      30.19F
LOVELOCK       SUNNY     69  13  11 NE8       30.19F
HAWTHORNE      SUNNY     70  28  21 W10       30.20F
$$

NVZ002-CAZ072-073-202200-
NORTHERN AND CENTRAL SIERRA

CITY           SKY/WX    TMP DP  RH WIND       PRES   REMARKS
S. LAKE TAHOE  SUNNY     61  23  23 VRB3      30.25S
SQUAW VLY 8000   N/A     52  12  20 VRB5        N/A
BLUE CANYON    SUNNY     66  21  18 W8        30.23F
MAMMOTH LAKES  FAIR      68  12  11 SE9       30.23S
BRIDGEPORT     FAIR      65  12  12 E12G18    30.20F
$$

NVZ030-031-036-202200-
NORTHERN NEVADA

CITY           SKY/WX    TMP DP  RH WIND       PRES   REMARKS
ELKO           SUNNY     64  18  17 W12G20    30.20F
WINNEMUCCA     SUNNY     65  12  12 VRB5      30.22F
WENDOVER       SUNNY     70  25  18 E10G16    30.15S
$$

NVZ035-037-202200-
CENTRAL NEVADA

CITY           SKY/WX    TMP DP  RH WIND       PRES   REMARKS
ELY            MOSUNNY   67  23  19 W6        30.19S
EUREKA           N/A     65  23  20 MISG      30.21F
$$

NVZ013-014-202200-
SOUTH CENTRAL NEVADA

CITY           SKY/WX    TMP DP  RH WIND       PRES   REMARKS
TONOPAH        MOSUNNY   72  10   9 N6G16     30.18F
$$

NVZ017-020-022-202200-
SOUTHERN NEVADA

CITY           SKY/WX    TMP DP  RH WIND       PRES   REMARKS
LAS VEGAS      MOSUNNY   88  33  14 VRB3      29.95F
N. LAS VEGAS   SUNNY     86  33  15 CALM      29.98F
NELLIS AFB     SUNNY     87  36  16 VRB6      29.97F
HENDERSON      SUNNY     87  33  14 VRB5      30.01F
MERCURY        SUNNY     82  31  15 W12       30.06F
$$



USA.gov is the U.S. government's official web portal to all federal, state and local government web resources and services.